Location: Pulvis Stellarum Observatory
(41.6962°N, 71.4263°W)
Time: 02:44:42
(UTC-04:00)

Daily predictions for brighter satellites

Satellite Brightness Start Highest point End
(mag) Time Altitude Azimuth Time Altitude Azimuth Time Altitude Azimuth
Lacrosse 5 4.2 00:04:58 10° WNW 00:06:08 16° WNW 00:06:08 16° WNW
Mayak 1.5 00:14:53 10° NNE 00:15:54 17° NNE 00:15:54 17° NNE
SeaSat 1 4.1 00:22:25 31° N 00:22:25 31° N 00:25:07 10° NNW
Lacrosse 4 Rocket 4.4 00:35:42 10° NNE 00:37:19 12° NE 00:37:19 12° NE
Cosmos 2082 Rocket 4.4 00:56:21 16° ENE 00:56:21 16° ENE 00:57:59 10° NE
Cosmos 1833 Rocket 4.2 01:27:07 30° ENE 01:27:07 30° ENE 01:30:22 10° NE
ADEOS Rocket 3.9 01:24:03 10° N 01:29:47 44° NW 01:29:47 44° NW
Cosmos 1464 Rocket 4.5 02:00:13 54° NW 02:00:13 54° NW 02:05:21 10° N
CZ-2D R/B 3.6 02:00:24 10° NE 02:04:37 28° E 02:04:37 28° E
SL-16 R/B 3.3 02:08:59 40° ESE 02:10:29 47° ENE 02:16:27 10° N
Lacrosse 4 Rocket 3.9 02:12:28 10° NNW 02:13:36 18° NNW 02:13:36 18° NNW
Cosmos 371 Rocket 4.5 02:19:30 39° N 02:19:30 39° N 02:22:38 10° NNE
Nadezhda 4 Rocket 4.1 02:11:47 10° N 02:17:01 65° NNW 02:17:01 65° NNW
Exosat Rocket 4.2 02:12:55 10° NNW 02:19:06 89° WSW 02:19:39 79° SSE
Cosmos 909 Rocket 4.5 02:14:15 10° NW 02:18:52 51° NW 02:18:52 51° NW
Lacrosse 5 rocket 3.3 02:25:24 28° NNE 02:25:24 28° NNE 02:27:40 10° NE
Cosmos 1980 Rocket 2.6 02:19:36 10° NNW 02:25:09 58° ENE 02:25:22 58° ENE
Cosmos 1697 Rocket 3.3 02:20:58 10° NNW 02:24:59 47° NNW 02:24:59 47° NNW
Cosmos 1025 Rocket 4.4 02:32:44 36° NNE 02:32:44 36° NNE 02:35:21 10° NNE
Cosmos 1634 Rocket 4.0 02:31:11 70° ESE 02:31:25 71° E 02:37:39 10° NNE
CBERS-1 4.5 02:26:51 10° NNE 02:31:12 58° NE 02:31:12 58° NE
Iridium 4 Rocket 4.2 02:34:44 42° NNE 02:34:44 42° NNE 02:37:54 10° N
Resurs 1-4 Rocket 2.6 02:29:05 10° NNE 02:33:57 52° E 02:33:57 52° E
Cosmos 1898 Rocket 4.2 02:32:13 10° N 02:37:17 49° ENE 02:38:05 45° E
Cosmos 2082 Rocket 2.6 02:38:11 55° NW 02:38:11 55° NW 02:43:11 10° NNE
Cosmos 2208 Rocket 4.2 02:41:03 66° ENE 02:41:03 66° ENE 02:45:45 10° NNE
SL-16 R/B 4.0 02:35:46 10° N 02:40:39 28° NE 02:45:29 10° ESE
Cosmos 304 Rocket 4.2 02:48:17 60° NNE 02:48:17 60° NNE 02:52:16 10° NNE
IRS-P3 4.1 02:44:47 10° NNE 02:49:49 78° NNW 02:49:49 78° NNW
Cosmos 2026 Rocket 4.0 02:44:16 10° N 02:50:41 82° E 02:51:47 63° SSE
Cosmos 1570 Rocket 4.1 02:52:04 73° NNW 02:52:04 73° NNW 02:56:58 10° NNE
USA 238 DEB 4.2 02:51:15 41° SSE 02:52:38 46° ESE 02:59:12 10° NE
USA 238 4.3 02:51:21 41° SSE 02:52:45 46° ESE 02:59:18 10° NE
Cosmos 2322 Rocket 3.7 02:49:45 10° N 02:54:51 34° ENE 02:59:54 10° ESE
Cosmos 468 Rocket 4.0 02:56:15 76° ESE 02:56:15 76° ESE 03:01:32 10° NNE
NPP 3.7 02:51:35 10° N 02:56:42 66° NW 02:56:42 66° NW
Helios 1A Rocket 4.3 02:55:46 10° NNE 02:59:32 33° E 02:59:33 33° E
MOZ.5/SAFIR/RUBIN 5/SL-8 3.9 03:02:38 70° E 03:02:45 71° ENE 03:07:31 10° N
ARIANE 5 R/B 2.8 02:57:34 10° NNE 03:02:45 60° E 03:03:25 55° SE
Meteor 1-22 Rocket 4.5 03:01:02 10° N 03:06:58 68° ENE 03:09:08 39° SSE
Cosmos 1814 Rocket 4.3 03:07:23 53° SE 03:07:58 56° ESE 03:13:03 10° NNE
Spot 4 Rocket 4.1 03:02:49 10° NNE 03:07:59 69° ESE 03:08:34 63° SE
Cosmos 1833 Rocket 3.8 03:08:48 30° WNW 03:09:07 31° NW 03:14:06 10° N
Cosmos 2195 Rocket 4.4 03:06:14 10° NNW 03:12:16 59° W 03:12:36 58° WSW
Cosmos 1842 3.8 03:21:36 52° E 03:21:42 52° E 03:25:34 10° NNE
Cosmos 2150 Rocket 4.4 03:16:46 10° NNW 03:22:14 65° ENE 03:27:17 12° SSE
Timation 2 Rocket 3.9 03:22:22 49° S 03:24:01 74° ESE 03:29:59 10° NNE
SL-08 R/B 4.4 03:28:02 31° WNW 03:28:02 31° WNW 03:31:13 10° NNW
H-2A R/B 3.8 03:25:53 10° N 03:29:01 29° NW 03:29:01 29° NW
Cosmos 2298 Rocket 4.0 03:24:53 10° NNW 03:30:14 84° ENE 03:33:29 24° SSE
Cosmos 44 3.4 03:25:19 10° NNW 03:30:35 86° ENE 03:35:59 10° SSE
Cosmos 1726 Rocket 3.5 03:26:33 10° NNW 03:30:29 66° WNW 03:30:29 66° WNW
Cosmos 841 Rocket 3.6 03:31:16 47° S 03:32:41 70° ESE 03:37:53 10° NNE
IRS-1D 3.7 03:27:56 10° N 03:33:01 56° WNW 03:33:43 51° WSW
ATLAS 3B R/B 2.8 03:32:22 39° SSW 03:35:19 76° ESE 03:42:16 10° NE
Cosmos 1805 3.2 03:32:46 10° N 03:36:42 79° E 03:36:59 72° SE
Cosmos 1655 Rocket 4.0 03:31:11 10° NNW 03:37:30 67° W 03:40:05 37° SSW
Cosmos 540 Rocket 4.3 03:38:37 26° SSE 03:41:09 46° ESE 03:46:04 10° NNE
CZ-2D R/B 2.8 03:40:11 10° N 03:45:06 37° WNW 03:45:57 35° W
NOSS 3-2 (A) 3.7 03:42:39 32° S 03:45:18 59° ESE 03:51:38 10° NE
Cosmos 1766 3.9 03:43:08 10° NNW 03:46:07 42° NW 03:46:07 42° NW
Cosmos 2228 2.9 03:44:35 10° NNW 03:48:47 58° W 03:48:57 57° WSW
Cosmos 1953 3.5 03:45:49 10° N 03:49:42 42° ENE 03:53:34 10° SSE
ATLAS CENTAUR R/B 3.6 03:47:19 10° NNW 03:51:13 30° NE 03:55:19 10° ESE
ADEOS 3.5 03:48:17 10° NNE 03:53:33 82° WNW 03:55:49 35° SSW
Cosmos 1602 Rocket 4.1 03:51:41 24° SSE 03:54:03 56° E 03:58:17 10° NNE
SL-16 R/B 3.4 03:54:04 29° W 03:54:16 29° W 03:59:38 10° NW
CENTAUR R/B 4.5 03:50:17 10° SSE 03:54:33 21° ESE 03:59:12 10° ENE
ADEOS II 2.4 03:50:07 10° NNE 03:55:21 64° ESE 03:58:59 20° S
Cosmos 1763 Rocket 3.8 03:55:39 39° WSW 03:57:10 51° WNW 04:02:22 10° N
Cosmos 2058 Rocket 3.2 03:53:06 10° NNW 03:57:24 51° W 03:58:07 46° SW
USA 215 4.0 03:53:45 10° ENE 03:59:54 43° SE 04:04:18 19° SSW
BREEZE-M DEB (TANK) 3.6 03:45:04 10° WNW 04:00:51 82° SW 04:04:47 10° SE
Lacrosse 5 rocket 3.9 04:01:37 10° NW 04:03:42 13° NNW 04:05:44 10° N
Cosmos 1733 3.4 04:00:44 10° N 04:04:36 72° E 04:07:51 14° SSE
Cosmos 1626 Rocket 3.4 04:03:31 30° S 04:05:37 87° E 04:09:57 10° N
Cosmos 2360 Rocket 3.0 04:01:07 10° NNW 04:06:38 54° ENE 04:12:08 10° SE
Cosmos 44 Rocket 3.3 04:03:00 10° NW 04:08:07 67° WSW 04:13:15 10° SSE
SJ 16-02 1.8 04:03:56 10° NNW 04:08:19 63° ENE 04:12:41 10° SSE
Cosmos 1980 Rocket 3.7 04:04:44 10° NW 04:07:04 18° WNW 04:07:04 18° WNW
BREEZE-M R/B 3.3 04:09:56 34° W 04:11:11 54° NNW 04:16:47 10° ENE
Resurs 1-4 Rocket 3.5 04:09:50 10° NNW 04:13:39 21° WNW 04:15:03 19° W
Cosmos 1758 3.2 04:13:37 10° NNW 04:17:33 63° W 04:20:02 21° S
Aureole 2 Rocket 2.7 04:18:58 10° NNW 04:22:46 73° ENE 04:26:16 10° SSE
Cosmos 2082 Rocket 4.4 04:21:53 10° NW 04:22:59 11° NW 04:24:06 10° NNW
SL-16 R/B 2.5 04:19:32 10° NW 04:24:55 45° WSW 04:30:15 10° S
Cosmos 1937 Rocket 4.5 04:22:01 10° NW 04:26:07 24° W 04:26:49 23° WSW
Cosmos 1125 Rocket 3.5 04:26:54 10° NNW 04:32:15 88° WSW 04:37:32 10° SSE
COSMOS 2428 4.3 04:27:07 10° N 04:32:24 37° ENE 04:37:39 10° SE
ERBS 2.4 04:31:08 27° SSW 04:32:47 70° SE 04:36:10 10° NE
BREEZE-M DEB (TANK) 1.5 04:32:56 38° SW 04:33:35 64° SSE 04:35:58 10° ENE
Helios 1A Rocket 4.5 04:31:23 10° NNW 04:34:33 21° WNW 04:35:51 18° W
UNKNOWN OBJECT B 4.1 04:33:11 10° NNW 04:36:12 23° WNW 04:37:20 20° W
Cosmos 1378 3.3 04:35:54 20° SSW 04:38:18 54° W 04:42:01 10° N
Cosmos 2322 Rocket 2.7 04:33:47 10° NW 04:38:52 36° WSW 04:43:55 10° S
Cosmos 1470 2.9 04:37:22 10° NNW 04:41:16 53° W 04:45:06 10° S
ARIANE 5 R/B 4.2 04:37:50 10° NNW 04:41:22 19° WNW 04:43:46 14° W
USA 238 DEB 4.4 04:38:42 17° WSW 04:43:41 41° NW 04:50:14 10° NNE
USA 238 4.4 04:38:47 17° WSW 04:43:46 41° NW 04:50:21 10° NNE
Gblst 52 Del rocket 4.4 04:38:56 10° WNW 04:44:55 79° SW 04:51:47 10° SE
Meteor 1-16 Rocket 4.4 04:39:58 10° N 04:45:37 73° ENE 04:51:04 10° SSE
Cosmos 372 Rocket 4.0 04:41:40 10° NNW 04:46:49 61° WSW 04:51:53 10° S
Cosmos 1833 4.4 04:46:46 13° SW 04:51:55 63° WNW 04:57:41 10° NNE
Cosmos 1707 3.0 04:50:02 12° SSW 04:53:31 49° W 04:57:19 10° N
Cosmos 1238 Rocket 4.1 04:49:06 10° S 04:55:41 81° W 05:02:23 10° N
Cosmos 1825 Rocket 3.5 04:51:34 10° S 04:55:53 86° W 05:00:13 10° N
CZ-4B R/B 2.8 04:54:47 10° N 04:58:59 84° WNW 05:02:56 10° SSW
Okean O Rocket 2.2 04:58:13 10° NNE 05:02:32 58° E 05:06:48 10° S
CZ-4B R/B 3.9 05:01:09 10° NNE 05:06:37 57° E 05:11:56 10° S
USA 161 1.8 05:08:44 10° SSE 05:11:44 74° E 05:14:39 10° N
PSLV R/B 4.0 05:08:29 10° N 05:12:28 42° WNW 05:16:24 10° SW
Cosmos 1417 Rocket 4.5 05:06:30 10° SSW 05:12:37 70° W 05:18:51 10° N
Meteor PRIRODA 4.0 05:11:39 10° NNE 05:15:21 71° ESE 05:19:03 10° S
Meteor 1-31 Rocket 3.0 05:11:51 10° NNE 05:15:44 72° ESE 05:19:32 10° S
Meteor 1-28 Rocket 3.1 05:15:53 10° S 05:19:37 81° WSW 05:23:25 10° NNW
NOSS 3-2 (C) 4.0 05:14:54 10° WSW 05:20:39 46° NW 05:27:03 10° NNE
PSLV R/B 4.1 05:19:10 10° N 05:22:50 44° WNW 05:26:24 10° SW
PSLV R/B 2.9 05:20:00 10° WSW 05:22:57 73° S 05:25:57 10° E
Cosmos 1315 Rocket 4.2 05:19:20 10° SSE 05:23:09 43° E 05:26:58 10° NNE
Cosmos 1953 Rocket 3.7 05:18:51 10° SSW 05:23:16 62° W 05:27:41 10° N
Cosmos 2322 4.0 05:19:25 10° NW 05:24:55 48° WSW 05:30:22 10° S
Cosmos 2237 4.4 05:20:11 10° NW 05:25:41 50° WSW 05:31:09 10° S
Cosmos 1745 Rocket 4.0 05:20:20 10° N 05:26:32 79° W 05:32:47 10° S
ATLAS 3B R/B 3.9 05:20:39 10° W 05:26:39 28° NW 05:32:29 10° NNE
